Printer-friendly version

IAU Minor Planet Center

Minor Planet Center

MPEC 2006-M50 : 2006 MX13

The following Minor Planet Electronic Circular may be linked-to from your own Web pages, but must not otherwise be redistributed electronically.


Read MPEC 2006-M49 Read MPEC 2006-M51


M.P.E.C. 2006-M50                                Issued 2006 June 29, 17:10 UT

     The Minor Planet Electronic Circulars contain information on unusual
         minor planets and routine data on comets.  They are published
   on behalf of Commission 20 of the International Astronomical Union by the
          Minor Planet Center, Smithsonian Astrophysical Observatory,
                          Cambridge, MA 02138, U.S.A.

                  Supported in part by the Brinson Foundation
                  Supported in part by the TABASGO Foundation
             Prepared using the Tamkin Foundation Computer Network

                              MPC@CFA.HARVARD.EDU
          URL http://cfa-www.harvard.edu/iau/mpc.html  ISSN 1523-6714

                                   2006 MX13

Observations:
     K06M13X* C2006 06 27.62237 19 21 19.72 -46 55 20.3          18.6 V EM050E12
     K06M13X  C2006 06 27.63112 19 21 20.26 -46 55 29.5          18.7 V EM050E12
     K06M13X  C2006 06 27.63988 19 21 20.80 -46 55 38.6          18.6 V EM050E12
     K06M13X  C2006 06 27.83728 19 21 33.96 -46 58 50.8          18.4 R EM050E12
     K06M13X  C2006 06 28.15831 19 22 01.19 -47 04 42.6          18.6 R EM050I77
     K06M13X  C2006 06 28.16553 19 22 01.62 -47 04 50.1          18.3 R EM050I77
     K06M13X  C2006 06 28.17069 19 22 01.94 -47 04 55.3          18.1 R EM050I77
     K06M13X  C2006 06 28.43833 19 22 25.13 -47 09 15.5                 EM050E12
     K06M13X  C2006 06 28.43898 19 22 25.13 -47 09 16.6                 EM050E12
     K06M13X  C2006 06 28.43962 19 22 25.25 -47 09 17.0                 EM050E12
     K06M13X  C2006 06 28.58258 19 22 34.78 -47 11 55.0          18.5 V EM050E12
     K06M13X  C2006 06 28.58425 19 22 34.79 -47 11 55.7          18.6 R EM050423
     K06M13X  C2006 06 28.59230 19 22 35.43 -47 12 05.6          18.7 V EM050E12
     K06M13X  C2006 06 28.60190 19 22 36.04 -47 12 15.3          18.6 V EM050E12
     K06M13X  C2006 06 28.61150 19 22 36.62 -47 12 25.9          18.6 V EM050E12
     K06M13X  C2006 06 28.62272 19 22 37.30 -47 12 35.9          18.3 R EM050423
     K06M13X  C2006 06 28.76740 19 22 46.78 -47 14 59.5          18.4 V EM050E12
     K06M13X  C2006 06 28.76804 19 22 46.96 -47 14 59.9          18.1 V EM050E12
     K06M13X  C2006 06 28.76873 19 22 46.92 -47 15 00.7          18.7 V EM050E12
     K06M13X  C2006 06 29.50126 19 23 48.25 -47 27 33.6                 EM050E12
     K06M13X  C2006 06 29.50274 19 23 48.34 -47 27 35.6                 EM050E12
     K06M13X  C2006 06 29.50425 19 23 48.45 -47 27 37.1                 EM050E12
     K06M13X  C2006 06 29.50574 19 23 48.58 -47 27 39.0                 EM050E12
     K06M13X  C2006 06 29.55830 19 23 51.93 -47 28 34.9          18.3 R EM050423
     K06M13X  C2006 06 29.58260 19 23 53.49 -47 29 00.6          18.3 R EM050423
     K06M13X  C2006 06 29.68934 19 24 00.51 -47 30 49.3          18.8 V EM050E12
     K06M13X  C2006 06 29.69022 19 24 00.59 -47 30 50.1          18.6 V EM050E12
     K06M13X  C2006 06 29.69110 19 24 00.67 -47 30 51.6          18.8 V EM050E12

Observer details:
423 North Ryde.  Observer S. G. McAndrew.  0.20-m f/4 hyperbolic astrograph
    + CCD.
E12 Siding Spring Survey.  Observer R. H. McNaught.  Measurers E. C. Beshore,
    E. J. Christensen, G. J. Garradd, A. R. Gibbs, A. D. Grauer, R. E. Hill,
    R. A. Kowalski, S. M. Larson, R. H. McNaught.  0.5-m Uppsala Schmidt + CCD.
I77 CEAMIG-REA Observatory, Belo Horizonte.  Observers C. Jacques, E. Pimentel.
    Measurer C. Jacques.  0.30-m f/3.0 Schmidt-Cassegrain + CCD.

Orbital elements:
2006 MX13                                                Earth MOID = 0.1667 AU
Epoch 2006 Mar. 6.0 TT = JDT 2453800.5                  MPC
M 308.25643              (2000.0)            P               Q
n   0.30522273     Peri.  318.29285     +0.83727789     +0.54657149
a   2.1846983      Node     8.61355     -0.47138815     +0.73547332
e   0.4675358      Incl.    5.75236     -0.27705406     +0.40042301
P   3.23           H   19.6           G   0.15           U   8
Residuals in seconds of arc
060627 E12  0.1+  0.1+    060628 E12  0.4-  0.1+    060629 E12  0.0   0.0
060627 E12  0.0   0.0     060628 423  0.4-  0.1+    060629 E12  0.0   0.1+
060627 E12  0.1-  0.0     060628 E12  0.1-  0.2-    060629 E12  0.3+  0.1-
060627 E12  0.1-  0.1-    060628 E12  0.1-  0.2+    060629 423  0.2-  0.1-
060628 I77  0.0   0.4-    060628 E12  0.4-  0.4-    060629 423  0.5-  0.2-
060628 I77  0.1-  0.4-    060628 423  0.2+  0.0     060629 E12  0.2-  0.1+
060628 I77  0.1-  0.2-    060628 E12  0.2-  0.1+    060629 E12  0.0   0.2+
060628 E12  0.2+  0.4+    060628 E12  1.2+  0.3+    060629 E12  0.2+  0.5-
060628 E12  0.3-  0.0     060628 E12  0.3+  0.1+
060628 E12  0.5+  0.3+    060629 E12  0.1+  0.3+

Ephemeris:
2006 MX13                a,e,i = 2.18, 0.47, 6                   q = 1.1633
Date    TT    R. A. (2000) Decl.     Delta      r     Elong.  Phase     V
2006 06 24    19 16.77   -45 51.6    0.334    1.324   153.8    19.8    18.8
2006 07 04    19 29.99   -48 41.7    0.286    1.279   153.1    21.1    18.5
2006 07 14    19 46.53   -50 58.4    0.248    1.239   150.6    23.7    18.2
2006 07 24    20 08.40   -52 06.9    0.218    1.206   147.8    26.6    17.9
2006 08 03    20 36.62   -51 22.7    0.196    1.182   146.1    28.6    17.7
2006 08 13    21 09.44   -48 03.9    0.180    1.168   146.5    28.6    17.5
2006 08 23    21 42.01   -41 52.8    0.173    1.163   149.2    26.4    17.3
2006 09 02    22 10.45   -33 21.2    0.175    1.169   153.6    22.6    17.2
2006 09 12    22 33.59   -23 56.7    0.190    1.184   157.5    19.0    17.3
2006 09 22    22 52.12   -15 15.1    0.218    1.209   158.5    17.7    17.6
2006 10 02    23 07.78   -08 07.3    0.259    1.242   156.2    19.0    18.1
2006 10 12    23 22.05   -02 38.3    0.313    1.282   151.8    21.6    18.7
2006 10 22    23 35.83   +01 29.6    0.380    1.329   146.5    24.4    19.3
2006 11 01    23 49.84   +04 40.2    0.459    1.380   140.9    27.0    19.8
2006 11 11    00 04.34   +07 12.5    0.551    1.434   135.2    29.1    20.4
2006 11 21    00 19.43   +09 19.9    0.654    1.492   129.4    30.8    20.9
2006 12 01    00 35.16   +11 12.0    0.770    1.551   123.7    31.9    21.3
2006 12 11    00 51.47   +12 54.4    0.895    1.612   117.9    32.7    21.8

Kyle E. Smalley              (C) Copyright 2006 MPC           M.P.E.C. 2006-M50

Read MPEC 2006-M49 Read MPEC 2006-M51


Our Web policy. Index to the CBAT/MPC/ICQ pages.


Valid HTML 4.01!